Tracking 29892 objects as of 21-Nov-2024
HD Live streaming from Space Station
objects crossing your sky now

DELTA 2 R/B(2)

Track DELTA 2 R/B(2) now!


NORAD ID: 26115
Int'l Code: 2000-017C
Perigee: 738.8 km
Apogee: 46,249.4 km
Inclination: 94.0 °
Period: 856.1 minutes
Semi major axis: 29865 km
RCS: 1.953 m2 (large)
Launch date: March 25, 2000
Source: United States (US)
Launch site: AIR FORCE WESTERN TEST RANGE (AFWTR)

Note: This is a ROCKET BODY
Your satellite tracking list
Your tracking list is empty




NASA's NSSDC Master Catalog

Two Line Element Set (TLE):
1 26115U 00017C   24325.20024182 -.00000417  00000-0 -21014-1 0  9991
2 26115  94.0191 306.3305 7619360 359.9800 359.8412  1.68212004151448
Source of the keplerian elements: AFSPC